• In Hungary
  • List of Countries
  • For 7 days
  • Water Temperature
  • Satellite Maps
  • Weather Map
  • News
  • Weather Widgets
  • user-avatar
    Login

    Hourly Weather Derevyansk

    Today, 25 May, Friday

    Time Temperature Precipitation Wind Pressure Humidity
    00:00 +3°C° 0 mm 2 mps 752 mmHg 62%
    01:00 +3°C° 0 mm 2 mps 752 mmHg 64%
    02:00 +3°C° 0 mm 2 mps 752 mmHg 67%
    03:00 +2°C° 0 mm 2 mps 752 mmHg 70%
    04:00 +2°C° 0 mm 2 mps 752 mmHg 74%
    05:00 +3°C° 0 mm 2 mps 752 mmHg 70%
    06:00 +4°C° 0 mm 2 mps 752 mmHg 65%
    07:00 +5°C° 0 mm 2 mps 752 mmHg 61%
    08:00 +5°C° 0.2 mm 3 mps 752 mmHg 57%
    09:00 +5°C° 0.2 mm 3 mps 753 mmHg 53%
    10:00 +6°C° 0 mm 4 mps 753 mmHg 49%
    11:00 +6°C° 0.1 mm 4 mps 753 mmHg 46%
    12:00 +6°C° 0.1 mm 4 mps 754 mmHg 43%
    13:00 +6°C° 0.1 mm 4 mps 754 mmHg 40%
    14:00 +6°C° 0 mm 4 mps 754 mmHg 39%
    15:00 +6°C° 0 mm 4 mps 755 mmHg 39%
    16:00 +6°C° 0 mm 4 mps 755 mmHg 38%
    17:00 +6°C° 0 mm 4 mps 755 mmHg 39%
    18:00 +6°C° 0 mm 4 mps 756 mmHg 40%
    19:00 +5°C° 0 mm 3 mps 756 mmHg 41%
    20:00 +4°C° 0 mm 3 mps 756 mmHg 47%
    21:00 +3°C° 0 mm 2 mps 757 mmHg 53%
    22:00 +3°C° 0 mm 1 mps 757 mmHg 58%
    23:00 +2°C° 0 mm 1 mps 757 mmHg 61%

    Tomorrow, 26 May, Saturday

    Time Temperature Precipitation Wind Pressure Humidity
    00:00 +2°C° 0 mm 1 mps 757 mmHg 63%
    01:00 +1°C° 0 mm 1 mps 757 mmHg 65%
    02:00 +1°C° 0 mm 1 mps 758 mmHg 66%
    03:00 +1°C° 0 mm 1 mps 758 mmHg 67%
    04:00 -1°C° 0 mm 2 mps 758 mmHg 68%
    05:00 +2°C° 0 mm 2 mps 758 mmHg 62%
    06:00 +4°C° 0 mm 2 mps 758 mmHg 55%
    07:00 +5°C° 0 mm 3 mps 757 mmHg 49%
    08:00 +8°C° 0 mm 3 mps 757 mmHg 46%
    09:00 +10°C° 0 mm 3 mps 757 mmHg 43%
    10:00 +12°C° 0 mm 4 mps 756 mmHg 39%
    11:00 +13°C° 0 mm 4 mps 756 mmHg 38%
    12:00 +13°C° 0 mm 4 mps 755 mmHg 37%
    13:00 +14°C° 0 mm 4 mps 755 mmHg 36%
    14:00 +15°C° 0 mm 4 mps 754 mmHg 36%
    15:00 +15°C° 0 mm 4 mps 753 mmHg 36%
    16:00 +17°C° 0 mm 4 mps 753 mmHg 36%
    17:00 +17°C° 0 mm 3 mps 752 mmHg 40%
    18:00 +16°C° 0 mm 3 mps 751 mmHg 44%
    19:00 +16°C° 0 mm 3 mps 750 mmHg 47%
    20:00 +14°C° 0 mm 3 mps 749 mmHg 52%
    21:00 +13°C° 0 mm 4 mps 749 mmHg 56%
    22:00 +12°C° 0 mm 4 mps 748 mmHg 60%
    23:00 +12°C° 0.1 mm 4 mps 747 mmHg 64%

    Day after tomorrow, 27 May, Sunday

    Time Temperature Precipitation Wind Pressure Humidity
    00:00 +12°C° 0.1 mm 4 mps 747 mmHg 67%
    01:00 +12°C° 0.1 mm 4 mps 746 mmHg 70%
    02:00 +11°C° 0 mm 3 mps 746 mmHg 75%
    03:00 +10°C° 0 mm 3 mps 746 mmHg 79%
    04:00 +8°C° 0 mm 3 mps 747 mmHg 84%
    05:00 +8°C° 0 mm 3 mps 747 mmHg 77%
    06:00 +8°C° 0 mm 2 mps 747 mmHg 70%
    07:00 +8°C° 0 mm 2 mps 747 mmHg 63%
    08:00 +9°C° 0 mm 2 mps 747 mmHg 54%
    09:00 +10°C° 0 mm 3 mps 747 mmHg 46%
    10:00 +11°C° 0 mm 3 mps 746 mmHg 37%
    11:00 +12°C° 0 mm 3 mps 746 mmHg 38%
    12:00 +12°C° 0 mm 4 mps 746 mmHg 39%
    13:00 +12°C° 0 mm 5 mps 746 mmHg 40%
    14:00 +12°C° 0.1 mm 5 mps 745 mmHg 39%
    15:00 +12°C° 0.1 mm 5 mps 745 mmHg 37%
    16:00 +12°C° 0.1 mm 5 mps 745 mmHg 35%
    17:00 +12°C° 0 mm 5 mps 745 mmHg 37%
    18:00 +10°C° 0 mm 5 mps 745 mmHg 39%
    19:00 +10°C° 0 mm 4 mps 745 mmHg 40%
    20:00 +8°C° 0.1 mm 4 mps 745 mmHg 47%
    21:00 +6°C° 0.1 mm 4 mps 745 mmHg 53%
    22:00 +5°C° 0.1 mm 3 mps 746 mmHg 60%
    23:00 +4°C° 0 mm 3 mps 746 mmHg 60%

    28 May, Monday

    Time Temperature Precipitation Wind Pressure Humidity
    00:00 +3°C° 0 mm 3 mps 746 mmHg 61%
    01:00 +2°C° 0 mm 3 mps 746 mmHg 61%
    02:00 +1°C° 0 mm 4 mps 746 mmHg 63%
    03:00 +1°C° 0 mm 4 mps 746 mmHg 65%
    04:00 +1°C° 0 mm 4 mps 746 mmHg 67%
    05:00 +1°C° 0 mm 5 mps 746 mmHg 64%
    06:00 +2°C° 0 mm 5 mps 747 mmHg 61%
    07:00 +3°C° 0 mm 6 mps 747 mmHg 58%
    08:00 +3°C° 0 mm 6 mps 747 mmHg 56%
    09:00 +4°C° 0 mm 6 mps 748 mmHg 54%
    10:00 +4°C° 0 mm 6 mps 748 mmHg 51%
    11:00 +4°C° 0.1 mm 6 mps 748 mmHg 50%
    12:00 +5°C° 0.1 mm 6 mps 748 mmHg 49%
    13:00 +5°C° 0.1 mm 6 mps 749 mmHg 48%
    14:00 +5°C° 0.1 mm 6 mps 749 mmHg 48%
    15:00 +7°C° 0.1 mm 6 mps 749 mmHg 47%
    16:00 +7°C° 0.1 mm 6 mps 749 mmHg 47%
    17:00 +7°C° 0 mm 5 mps 749 mmHg 48%
    18:00 +6°C° 0 mm 5 mps 749 mmHg 49%
    19:00 +6°C° 0 mm 4 mps 749 mmHg 50%
    20:00 +5°C° 0 mm 3 mps 749 mmHg 56%
    21:00 +4°C° 0 mm 2 mps 749 mmHg 62%
    22:00 +3°C° 0 mm 2 mps 749 mmHg 68%
    23:00 +3°C° 0 mm 1 mps 749 mmHg 70%

    29 May, Tuesday

    Time Temperature Precipitation Wind Pressure Humidity
    00:00 +3°C° 0 mm 1 mps 748 mmHg 72%
    01:00 +3°C° 0 mm 1 mps 748 mmHg 74%
    02:00 +3°C° 0 mm 1 mps 748 mmHg 75%
    03:00 +2°C° 0 mm 1 mps 748 mmHg 76%
    04:00 +2°C° 0 mm 1 mps 748 mmHg 77%
    05:00 +4°C° 0 mm 1 mps 748 mmHg 72%
    06:00 +5°C° 0 mm 1 mps 748 mmHg 67%
    07:00 +6°C° 0 mm 1 mps 748 mmHg 62%
    08:00 +6°C° 0 mm 2 mps 748 mmHg 59%
    09:00 +7°C° 0 mm 2 mps 748 mmHg 57%
    10:00 +7°C° 0 mm 3 mps 748 mmHg 54%
    11:00 +8°C° 0 mm 3 mps 748 mmHg 50%
    12:00 +9°C° 0 mm 3 mps 748 mmHg 45%
    13:00 +10°C° 0 mm 3 mps 748 mmHg 41%
    14:00 +10°C° 0 mm 3 mps 748 mmHg 40%
    15:00 +11°C° 0 mm 3 mps 748 mmHg 39%
    16:00 +11°C° 0 mm 3 mps 747 mmHg 38%
    17:00 +11°C° 0 mm 3 mps 747 mmHg 40%
    18:00 +10°C° 0 mm 3 mps 747 mmHg 41%
    19:00 +10°C° 0 mm 2 mps 747 mmHg 43%
    20:00 +8°C° 0 mm 2 mps 747 mmHg 50%
    21:00 +8°C° 0 mm 1 mps 746 mmHg 57%
    22:00 +5°C° 0 mm 0 mps 746 mmHg 64%
    23:00 +5°C° 0 mm 0 mps 745 mmHg 66%

    30 May, Wednesday

    Time Temperature Precipitation Wind Pressure Humidity
    00:00 +6°C° 0 mm 1 mps 745 mmHg 68%
    01:00 +5°C° 0 mm 1 mps 744 mmHg 70%
    02:00 +5°C° 0.4 mm 1 mps 743 mmHg 75%
    03:00 +5°C° 0.4 mm 1 mps 742 mmHg 80%
    04:00 +4°C° 0.4 mm 2 mps 741 mmHg 84%
    05:00 +4°C° 1 mm 2 mps 740 mmHg 86%
    06:00 +4°C° 1 mm 2 mps 739 mmHg 89%
    07:00 +3°C° 1 mm 3 mps 738 mmHg 91%
    08:00 +3°C° 0.4 mm 3 mps 737 mmHg 90%
    09:00 +4°C° 0.4 mm 3 mps 737 mmHg 90%
    10:00 +4°C° 0.4 mm 3 mps 736 mmHg 90%
    11:00 +4°C° 0.4 mm 3 mps 735 mmHg 89%
    12:00 +4°C° 0.4 mm 3 mps 735 mmHg 89%
    13:00 +5°C° 0.4 mm 3 mps 735 mmHg 89%
    14:00 +5°C° 0.2 mm 3 mps 734 mmHg 88%
    15:00 +5°C° 0.2 mm 3 mps 734 mmHg 88%
    16:00 +5°C° 0.2 mm 3 mps 734 mmHg 87%
    17:00 +5°C° 0.5 mm 3 mps 734 mmHg 89%
    18:00 +6°C° 0.5 mm 2 mps 734 mmHg 90%
    19:00 +6°C° 0.5 mm 2 mps 734 mmHg 92%
    20:00 +5°C° 0.3 mm 2 mps 735 mmHg 93%
    21:00 +5°C° 0.3 mm 2 mps 735 mmHg 94%
    22:00 +4°C° 0.3 mm 2 mps 735 mmHg 95%
    23:00 +4°C° 0 mm 2 mps 736 mmHg 95%
    Show more